Sault Ste Marie, MI

4:35 AM EST on November 20, 2017 (GMT -0500)
Sault Ste Marie Municipal / Sanderson Field

Weather History for KANJ - February, 2013

Change the Weather History Date:

Tuesday, February 5, 2013

  Actual Average Record
Temperature  
Mean Temperature 11 °F 16 °F  
Max Temperature 19 °F 24 °F 40 °F (1991)
Min Temperature 3 °F 8 °F -31 °F (1918)
Degree Days  
Heating Degree Days 54 49  
Month to date heating degree days 293 247  
Since 1 July heating degree days 4676 5047  
Moisture  
Dew Point 5 °F    
Average Humidity 72    
Maximum Humidity 84    
Minimum Humidity 59    
Precipitation  
Precipitation 0.12 in 0.05 in 0.67 in (1971)
Month to date precipitation 0.25 0.26  
Year to date precipitation 3.54 2.45  
Snow  
Snow 2.10 in 0.80 in 5.80 in (1938)
Month to date snowfall 4.9 4.1  
Since 1 July snowfall 94.3 85.7  
Snow Depth 18.00 in    
Sea Level Pressure  
Sea Level Pressure 29.77 in    
Wind  
Wind Speed 8 mph (NNW)    
Max Wind Speed 22 mph    
Max Gust Speed 29 mph    
Visibility 4 miles    
Events Snow    
T = Trace of Precipitation, MM = Missing Value Source: NWS Daily Summary

Daily Weather History Graph

Daily Weather History Graph

Search for Another Location

Airport or City:

Trip Planner

Search our weather history database for the weather conditions in past years. The results will help you decide how hot, cold, wet, or windy it might be!

Date:

Astronomy

Feb. 05, 2013 Rise Set
Actual Time 7:55 AM EST 5:48 PM EST
Civil Twilight 7:23 AM EST 6:20 PM EST
Nautical Twilight 6:47 AM EST 6:55 PM EST
Astronomical Twilight 6:12 AM EST 7:31 PM EST
Moon 3:43 AM EST (2/5) 12:57 PM EST (2/5)
Length of Visible Light 10h 56m
Length of Day
9h 52m
Waning Crescent, 27% of the Moon is Illuminated
Feb 5
Waning Crescent
Feb 10
New
Feb 17
First Quarter
Feb 25
Full
Mar 4
Last Quarter

Hourly Weather History & Observations

Time (EST) Temp. Windchill Dew Point Humidity Pressure Visibility Wind Dir Wind Speed Gust Speed Precip Events Conditions
12:24 AM 7.0 °F -6.6 °F -2.0 °F 67% 29.85 in 10.0 mi SW 9.2 mph - N/A   Mostly Cloudy
12:55 AM 7.0 °F -7.5 °F -2.0 °F 67% 29.89 in 10.0 mi WSW 10.4 mph - N/A   Mostly Cloudy
1:27 AM 8.1 °F -5.3 °F -2.9 °F 61% 29.83 in 10.0 mi WSW 9.2 mph - N/A   Scattered Clouds
1:55 AM 8.1 °F -7.0 °F -2.0 °F 64% 29.87 in 10.0 mi SW 11.5 mph - N/A   Overcast
2:55 AM 6.1 °F -6.8 °F -4.0 °F 63% 29.87 in 10.0 mi WSW 8.1 mph - N/A   Mostly Cloudy
3:55 AM 6.1 °F -7.8 °F -2.9 °F 67% 29.85 in 10.0 mi SW 9.2 mph - N/A   Overcast
4:55 AM 5.0 °F -6.9 °F -4.0 °F 66% 29.85 in 10.0 mi SW 6.9 mph - N/A   Mostly Cloudy
5:55 AM 7.0 °F 0.1 °F -2.0 °F 67% 29.83 in 10.0 mi ESE 3.5 mph - N/A   Overcast
6:55 AM 3.9 °F -5.3 °F -2.0 °F 76% 29.81 in 10.0 mi ENE 4.6 mph - N/A   Overcast
7:42 AM 6.1 °F -0.9 °F -0.9 °F 73% 29.77 in 2.5 mi ENE 3.5 mph - 0.00 in Snow Light Snow
7:52 AM 6.8 °F -2.0 °F -0.4 °F 72% 29.77 in 1.5 mi ENE 4.6 mph - 0.00 in Snow Light Snow
7:55 AM 6.1 °F -2.8 °F -0.0 °F 76% 29.81 in 1.5 mi ENE 4.6 mph - 0.00 in Snow Light Snow
8:22 AM 5.0 °F -5.6 °F -0.0 °F 80% 29.76 in 0.8 mi East 5.8 mph - 0.01 in Snow Light Snow
8:36 AM 5.0 °F -5.6 °F -0.0 °F 80% 29.76 in 1.2 mi ENE 5.8 mph - 0.01 in Snow Light Snow
8:47 AM 5.0 °F -5.6 °F -0.0 °F 80% 29.75 in 0.5 mi East 5.8 mph - 0.01 in Snow Snow
8:55 AM 5.0 °F -5.6 °F -0.0 °F 80% 29.80 in 0.8 mi East 5.8 mph - 0.02 in Snow Light Snow
9:03 AM 6.1 °F -2.8 °F 1.0 °F 80% 29.75 in 1.5 mi East 4.6 mph - 0.00 in Snow Light Snow
9:16 AM 6.1 °F -4.3 °F 1.0 °F 80% 29.75 in 0.8 mi East 5.8 mph - 0.00 in Snow Light Snow
9:26 AM 6.1 °F -5.6 °F 1.0 °F 80% 29.75 in 1.5 mi East 6.9 mph - 0.01 in Snow Light Snow
9:48 AM 7.0 °F -1.7 °F 1.9 °F 80% 29.74 in 0.8 mi East 4.6 mph - 0.01 in Snow Light Snow
9:55 AM 8.1 °F -2.0 °F 1.9 °F 76% 29.78 in 0.8 mi East 5.8 mph - 0.02 in Snow Light Snow
10:15 AM 8.1 °F -0.5 °F 3.0 °F 80% 29.73 in 1.5 mi East 4.6 mph - 0.00 in Snow Light Snow
10:52 AM 10.4 °F 2.2 °F 5.0 °F 79% 29.72 in 0.8 mi East 4.6 mph - 0.02 in Snow Light Snow
10:55 AM 10.0 °F 3.6 °F 5.0 °F 80% 29.76 in 0.8 mi ENE 3.5 mph - 0.02 in Snow Light Snow
11:39 AM 12.0 °F 4.1 °F 7.0 °F 80% 29.70 in 1.0 mi ENE 4.6 mph - 0.02 in Snow Light Snow
11:55 AM 12.9 °F 5.2 °F 8.1 °F 81% 29.74 in 1.5 mi East 4.6 mph - 0.02 in Snow Light Snow
12:18 PM 14.0 °F 8.2 °F 8.1 °F 77% 29.68 in 1.0 mi East 3.5 mph - 0.01 in Snow Light Snow
12:55 PM 15.1 °F 9.4 °F 9.0 °F 77% 29.71 in 1.2 mi ENE 3.5 mph - 0.02 in Snow Light Snow
1:18 PM 16.0 °F 10.4 °F 10.0 °F 77% 29.66 in 2.0 mi ENE 3.5 mph - 0.00 in Snow Light Snow
1:22 PM 16.0 °F 10.4 °F 10.0 °F 77% 29.66 in 1.8 mi Variable 3.5 mph - 0.00 in Snow Light Snow
1:51 PM 15.8 °F 8.6 °F 10.4 °F 79% 29.65 in 1.0 mi NNE 4.6 mph - 0.00 in Snow Light Snow
1:55 PM 17.1 °F 11.7 °F 10.0 °F 74% 29.69 in 1.0 mi NNE 3.5 mph - 0.00 in Snow Light Snow
2:06 PM 16.0 °F 8.8 °F 10.0 °F 77% 29.66 in 1.2 mi NNE 4.6 mph - 0.00 in Snow Light Snow
2:44 PM 17.1 °F 11.7 °F 10.9 °F 77% 29.65 in 2.5 mi NNE 3.5 mph - 0.01 in Snow Light Snow
2:53 PM 17.6 °F - 10.4 °F 73% 29.65 in 3.0 mi Calm Calm - 0.01 in Snow Light Snow
2:55 PM 18.0 °F - 10.9 °F 74% 29.69 in 3.0 mi Calm Calm - 0.01 in Snow Light Snow
3:50 PM 17.6 °F 12.3 °F 12.2 °F 79% 29.68 in 2.0 mi NW 3.5 mph - 0.00 in Snow Light Snow
3:55 PM 18.0 °F 11.1 °F 12.0 °F 78% 29.72 in 2.5 mi WNW 4.6 mph - 0.00 in Snow Light Snow
4:02 PM 18.0 °F 9.8 °F 12.0 °F 78% 29.68 in 3.0 mi WNW 5.8 mph - 0.00 in Snow Light Snow
4:15 PM 17.1 °F 8.7 °F 10.9 °F 77% 29.68 in 9.0 mi NW 5.8 mph - 0.00 in   Mostly Cloudy
4:55 PM 18.0 °F 11.1 °F 9.0 °F 68% 29.73 in 10.0 mi WNW 4.6 mph - 0.00 in   Clear
5:45 PM 17.1 °F 8.7 °F 10.0 °F 74% 29.72 in 2.5 mi West 5.8 mph - 0.00 in Snow Light Snow
5:51 PM 17.6 °F 7.3 °F 10.4 °F 73% 29.72 in 1.5 mi West 8.1 mph - 0.00 in Snow Light Snow
5:55 PM 16.0 °F 6.3 °F 10.0 °F 77% 29.76 in 1.5 mi West 6.9 mph - 0.00 in Snow Light Snow
6:07 PM 16.0 °F 5.3 °F 10.9 °F 81% 29.73 in 2.5 mi West 8.1 mph - 0.00 in Snow Light Snow
6:19 PM 16.0 °F 6.3 °F 10.9 °F 81% 29.74 in 4.0 mi West 6.9 mph - 0.00 in Snow Light Snow
6:30 PM 17.1 °F 6.6 °F 12.0 °F 81% 29.74 in 5.0 mi West 8.1 mph - 0.00 in Snow Light Snow
6:44 PM 17.1 °F 8.7 °F 12.0 °F 81% 29.75 in 3.0 mi West 5.8 mph - 0.00 in Snow Light Snow
6:55 PM 17.1 °F 8.7 °F 12.0 °F 81% 29.79 in 6.0 mi West 5.8 mph - 0.00 in Snow Light Snow
7:03 PM 17.1 °F 7.6 °F 12.0 °F 81% 29.75 in 4.0 mi WNW 6.9 mph - 0.00 in Snow Light Snow
7:07 PM 18.0 °F 8.7 °F 12.9 °F 81% 29.75 in 1.5 mi WNW 6.9 mph - 0.00 in Snow Light Snow
7:29 PM 18.0 °F 6.1 °F 12.9 °F 81% 29.76 in 3.0 mi WNW 10.4 mph 16.1 mph 0.01 in Snow Light Snow
7:53 PM 17.6 °F 1.7 °F 10.4 °F 73% 29.77 in 3.0 mi NW 18.4 mph 25.3 mph 0.01 in Snow Light Snow
7:55 PM 18.0 °F 1.7 °F 10.9 °F 74% 29.82 in 3.0 mi NW 19.6 mph 28.8 mph 0.01 in Snow Light Snow
8:50 PM 17.6 °F 2.7 °F 6.8 °F 63% 29.81 in 10.0 mi WNW 16.1 mph 23.0 mph 0.00 in   Overcast
8:55 PM 16.0 °F 1.7 °F 5.0 °F 62% 29.86 in 10.0 mi WNW 13.8 mph 23.0 mph 0.00 in   Mostly Cloudy
9:11 PM 17.1 °F 2.0 °F 6.1 °F 62% 29.82 in 5.0 mi NW 16.1 mph 25.3 mph 0.00 in Snow Light Snow
9:55 PM 15.1 °F -1.1 °F 3.0 °F 59% 29.89 in 9.0 mi NW 17.3 mph 25.3 mph 0.00 in   Mostly Cloudy
10:19 PM 14.0 °F -0.2 °F 7.0 °F 74% 29.87 in 2.5 mi NNW 12.7 mph 23.0 mph 0.00 in Snow Light Snow
10:29 PM 14.0 °F -0.8 °F 5.0 °F 67% 29.87 in 6.0 mi NNW 13.8 mph 19.6 mph 0.00 in   Overcast
10:55 PM 12.0 °F -1.3 °F 1.9 °F 64% 29.94 in 10.0 mi NNW 10.4 mph 18.4 mph 0.00 in   Mostly Cloudy
11:10 PM 12.0 °F -3.4 °F 1.9 °F 64% 29.89 in 10.0 mi NNW 13.8 mph 20.7 mph N/A   Scattered Clouds
11:55 PM 9.0 °F -5.9 °F -0.0 °F 67% 29.96 in 10.0 mi North 11.5 mph - N/A   Clear